GW0587 Weather Reports


time (UTC)temp
C
wind
direction
speed
KPH
gust
KPH
rain 1hr
cm
rain 24hr
cm
rain mn
cm
humidity
%
barometer
mb
20260504234547 25 256 1.6 14.5 0.00 0.00 0.00 43 1010.2
20260504233041 25 223 1.6 12.9 0.00 0.00 0.00 41 1010.2
20260504231554 25 259 3.2 17.7 0.00 0.00 0.00 40 1010.2
20260504230047 25 195 1.6 14.5 0.00 0.00 0.00 40 1010.3
20260504224546 25 284 1.6 22.5 0.00 0.00 0.00 40 1010.3
20260504223046 26 264 0.0 16.1 0.00 0.00 0.00 40 1010.4
20260504221605 26 0 1.6 14.5 0.00 0.00 0.00 40 1010.2
20260504220047 26 271 3.2 14.5 0.00 0.00 0.00 41 1010.3
20260504214547 26 173 4.8 16.1 0.00 0.00 0.00 38 1010.3
20260504213045 26 265 4.8 24.1 0.00 0.00 0.00 39 1010.4
20260504211600 26 245 3.2 16.1 0.00 0.00 0.00 40 1010.3
20260504210047 26 273 1.6 24.1 0.00 0.00 0.00 40 1010.5
20260504204540 26 144 4.8 14.5 0.00 0.00 0.00 39 1010.7
20260504203046 27 234 3.2 19.3 0.00 0.00 0.00 39 1010.9
20260504201544 27 238 3.2 17.7 0.00 0.00 0.00 40 1011.0
20260504200041 26 168 3.2 19.3 0.00 0.00 0.00 40 1011.5
20260504194553 26 210 6.4 17.7 0.00 0.00 0.00 39 1011.8
20260504193046 27 154 4.8 25.7 0.00 0.00 0.00 38 1012.0
20260504191609 26 0 3.2 16.1 0.00 0.00 0.00 39 1011.9
20260504190041 27 263 4.8 17.7 0.00 0.00 0.00 37 1012.2
20260504184550 27 240 4.8 16.1 0.00 0.00 0.00 39 1012.3
20260504183047 26 180 4.8 17.7 0.00 0.00 0.00 41 1012.4
20260504181547 26 319 4.8 12.9 0.00 0.00 0.00 43 1012.8
20260504180047 26 263 3.2 16.1 0.00 0.00 0.00 42 1013.1
20260504174542 26 248 6.4 16.1 0.00 0.00 0.00 41 1013.2
20260504173043 26 182 3.2 14.5 0.00 0.00 0.00 42 1013.3
20260504171543 26 173 4.8 20.9 0.00 0.00 0.00 43 1013.6
20260504081546 16 0 0.0 4.8 0.00 0.00 0.00 65 1014.4
20260504044546 15 0 0.0 0.0 0.00 0.00 0.00 64 1015.9
20260504043043 15 0 0.0 0.0 0.00 0.00 0.00 63 1015.9
20260504041544 15 0 0.0 0.0 0.00 0.00 0.00 62 1016.0
20260504040046 15 0 0.0 1.6 0.00 0.00 0.00 62 1016.0
20260504034553 16 0 0.0 0.0 0.00 0.00 0.00 61 1016.0
20260504033056 16 0 0.0 0.0 0.00 0.00 0.00 60 1016.1
20260504031600 16 0 0.0 0.0 0.00 0.00 0.00 59 1016.3
20260504030109 16 0 0.0 0.0 0.00 0.00 0.00 57 1016.4
20260504024549 17 0 0.0 0.0 0.00 0.00 0.00 55 1016.2
20260504023041 17 0 0.0 0.0 0.00 0.00 0.00 55 1016.2
20260504021548 17 0 0.0 0.0 0.00 0.00 0.00 52 1016.1
20260504020048 18 0 0.0 0.0 0.00 0.00 0.00 50 1016.1
20260504014549 18 0 0.0 0.0 0.00 0.00 0.00 48 1016.0
20260504013044 19 0 0.0 0.0 0.00 0.00 0.00 47 1015.9
20260504011542 20 0 0.0 1.6 0.00 0.00 0.00 46 1015.7
20260504010043 20 0 0.0 0.0 0.00 0.00 0.00 44 1015.7
20260504004541 21 0 0.0 1.6 0.00 0.00 0.00 43 1015.9
20260504003047 21 0 0.0 1.6 0.00 0.00 0.00 42 1015.7
20260504001550 21 0 0.0 3.2 0.00 0.00 0.00 40 1015.9
20260504000113 22 0 0.0 4.8 0.00 0.00 0.00 40 1015.8